Погода в Моруэлл

Австралия     38°14′17″S   146°24′12″E
темп.,
°C
ветер,
м/с
пор.,
м/с
влажн.,
%
обл.,
%
осадки,
мм/ч
давл.,
гПа
погр.,
м
18 августа, чт
чт1801:00+10св1373100 0.0 101189
04:00+10в1170100 0.0 100928
07:00+8всв1294100 0.3 101075
10:00+10всв0893100 0.8 1008273
13:00+18зсз5174561 0.0 10041982
16:00+14сз41364100 0.1 10061362
19:00+11сз31182100 0.2 1008779
22:00+9з1999100 2.9 1009446
19 августа, пт
пт1901:00+9зсз2999100 2.2 1010591
04:00+8зсз2997100 3.4 1011556
07:00+7з2109945 0.1 1013572
10:00+8з299690 0.3 1015764
13:00+12зюз375815 0.4 10151552
16:00+12з37515 0.4 10151651
19:00+6з138172 0.0 101758
22:00+5зюз1185100 0.0 101731
20 августа, сб
сб2001:00+9зсз31071100 0.0 10161090
04:00+10сз31178100 0.1 10151207
07:00+9зсз21298100 0.9 1016768
10:00+9зюз399898 3.4 1018665
13:00+11юз486761 0.4 10201393
16:00+11юз36535 0.4 10221554
19:00+4юз118311 0.0 102517
22:00+5зюз118098 0.0 102668
21 августа, вс
вс2101:00+5з118667 0.1 102662
04:00+3зюз119024 0.1 102635
07:00+1зюз11965 0.0 102612
10:00+9зсз12555 0.0 1025462
13:00+13з253741 0.0 10221339
16:00+13зюз374438 0.0 10211049
19:00+7зсз1174100 0.0 102210
22:00+4ссв0086100 0.0 102112
22 августа, пн
пн2201:00+3в1093100 0.0 101910
04:00+4св1190100 0.0 101632
07:00+11ссз31459100 0.0 10131448
10:00+13сз41759100 0.0 10111942
13:00+16сз517535 0.0 10072092
16:00+15сз5175721 0.0 10051844
19:00+7зсз1799100 7.6 1009494
22:00+7зюз2898100 11.1 1011599